EW6430 Weather Reports


time (UTC)temp
C
wind
direction
speed
KPH
gust
KPH
rain 1hr
cm
rain 24hr
cm
rain mn
cm
humidity
%
barometer
mb
20260503192014 17 225 0.0 4.8 0.00 0.00 0.00 50 1014.7
20260503191645 17 228 0.0 1.6 0.00 0.00 0.00 50 1014.6
20260503191006 18 228 0.0 0.0 0.00 0.00 0.00 49 1014.7
20260503190029 18 228 0.0 1.6 0.00 0.00 0.00 47 1014.5
20260503184956 19 228 1.6 4.8 0.00 0.00 0.00 46 1014.5
20260503184601 18 227 0.0 4.8 0.00 0.00 0.00 45 1014.3
20260503184452 19 227 1.6 4.8 0.00 0.00 0.00 45 1014.4
20260503183951 19 227 1.6 4.8 0.00 0.00 0.00 45 1014.4
20260503183506 19 225 1.6 3.2 0.00 0.00 0.00 45 1014.3
20260503183020 19 226 0.0 4.8 0.00 0.00 0.00 44 1014.1
20260503182942 20 223 1.6 8.0 0.00 0.00 0.00 44 1014.3
20260503182427 20 223 1.6 6.4 0.00 0.00 0.00 44 1014.2
20260503181920 20 211 1.6 8.0 0.00 0.00 0.00 43 1014.1
20260503181550 20 238 3.2 8.0 0.00 0.00 0.00 43 1014.0
20260503181421 20 229 1.6 6.4 0.00 0.00 0.00 43 1014.1
20260503180901 20 244 1.6 4.8 0.00 0.00 0.00 43 1014.1
20260503180354 21 245 1.6 6.4 0.00 0.00 0.00 42 1014.1
20260503180025 21 247 1.6 6.4 0.00 0.00 0.00 42 1013.9
20260503175842 21 242 0.0 3.2 0.00 0.00 0.00 41 1014.1
20260503175336 21 242 1.6 9.7 0.00 0.00 0.00 41 1014.1
20260503174543 21 246 0.0 9.7 0.00 0.00 0.00 40 1013.9
20260503174259 21 237 4.8 12.9 0.00 0.00 0.00 40 1014.0
20260503173743 22 234 3.2 12.9 0.00 0.00 0.00 39 1013.9
20260503173231 22 251 3.2 14.5 0.00 0.00 0.00 39 1014.0
20260503173121 22 235 1.6 14.5 0.00 0.00 0.00 38 1013.8
20260503172718 22 225 4.8 14.5 0.00 0.00 0.00 38 1014.0
20260503172207 22 229 3.2 12.9 0.00 0.00 0.00 38 1014.0
20260503171656 22 252 4.8 12.9 0.00 0.00 0.00 37 1014.0
20260503171527 22 268 0.0 12.9 0.00 0.00 0.00 37 1013.8
20260503171141 22 242 6.4 12.9 0.00 0.00 0.00 36 1013.9
20260503170630 22 257 8.0 16.1 0.00 0.00 0.00 36 1013.9
20260503170117 22 247 6.4 20.9 0.00 0.00 0.00 35 1013.9
20260503150621 24 265 9.7 24.1 0.00 0.00 0.00 35 1014.4
20260503150114 24 250 8.0 24.1 0.00 0.00 0.00 34 1014.4
20260503130525 23 227 8.0 24.1 0.00 0.00 0.00 36 1015.8
20260503120128 23 235 9.7 19.3 0.00 0.00 0.00 36 1016.2
20260503110639 23 240 8.0 20.9 0.00 0.00 0.00 39 1016.7
20260503110134 22 249 8.0 17.7 0.00 0.00 0.00 39 1016.9
20260503090231 20 209 11.3 29.0 0.00 0.00 0.00 45 1018.0
20260503090105 20 153 9.7 29.0 0.00 0.00 0.00 46 1018.0
20260503081528 19 231 8.0 17.7 0.00 0.00 0.00 48 1018.1
20260503081504 19 222 8.0 17.7 0.00 0.00 0.00 48 1018.2
20260503081017 19 197 9.7 19.3 0.00 0.00 0.00 49 1018.2
20260503080501 19 227 6.4 19.3 0.00 0.00 0.00 48 1018.1
20260503072817 17 173 4.8 11.3 0.00 0.00 0.00 52 1018.0
20260503072305 17 178 6.4 14.5 0.00 0.00 0.00 53 1018.0
20260503071803 17 154 6.4 14.5 0.00 0.00 0.00 52 1018.0
20260503071534 17 156 4.8 12.9 0.00 0.00 0.00 52 1018.1
20260503070735 17 250 6.4 14.5 0.00 0.00 0.00 53 1018.0
20260503070218 17 250 6.4 14.5 0.00 0.00 0.00 53 1018.0
20260503070154 17 246 4.8 14.5 0.00 0.00 0.00 53 1018.1
20260503054928 14 152 1.6 8.0 0.00 0.00 0.00 62 1017.9
20260503054553 13 122 0.0 4.8 0.00 0.00 0.00 62 1017.9
20260503053901 14 94 0.0 4.8 0.00 0.00 0.00 63 1018.0
20260503053349 13 93 0.0 3.2 0.00 0.00 0.00 65 1018.0
20260503053014 13 92 0.0 1.6 0.00 0.00 0.00 67 1018.1
20260503052832 13 92 0.0 1.6 0.00 0.00 0.00 67 1017.9
20260503052321 12 92 0.0 1.6 0.00 0.00 0.00 69 1018.0
20260503051538 11 92 0.0 1.6 0.00 0.00 0.00 72 1018.1
20260503051257 11 92 0.0 1.6 0.00 0.00 0.00 73 1018.0
20260503050237 10 92 0.0 1.6 0.00 0.00 0.00 77 1018.0
20260503050006 10 92 0.0 1.6 0.00 0.00 0.00 78 1018.1
20260503045722 10 93 0.0 3.2 0.00 0.00 0.00 79 1017.9
20260503045215 10 92 0.0 3.2 0.00 0.00 0.00 82 1017.9
20260503044703 9 93 0.0 1.6 0.00 0.00 0.00 85 1017.9
20260503044535 8 93 0.0 0.0 0.00 0.00 0.00 86 1018.0
20260503043640 7 93 0.0 1.6 0.00 0.00 0.00 90 1017.9
20260503043137 6 93 0.0 1.6 0.00 0.00 0.00 91 1017.9
20260503043010 6 93 0.0 1.6 0.00 0.00 0.00 91 1018.1
20260503042631 6 93 0.0 1.6 0.00 0.00 0.00 91 1017.9
20260503042118 5 93 0.0 0.0 0.00 0.00 0.00 91 1017.8
20260503041603 5 93 0.0 0.0 0.00 0.00 0.00 91 1017.9
20260503041105 5 93 0.0 0.0 0.00 0.00 0.00 91 1017.8
20260503040555 4 93 0.0 0.0 0.00 0.00 0.00 91 1017.8
20260503040120 4 93 0.0 0.0 0.00 0.00 0.00 90 1017.9
20260503034611 3 93 0.0 0.0 0.00 0.00 0.00 89 1018.0
20260503034520 4 93 0.0 0.0 0.00 0.00 0.00 89 1017.9
20260503034010 4 92 0.0 1.6 0.00 0.00 0.00 89 1017.8
20260503033132 4 92 0.0 0.0 0.00 0.00 0.00 88 1017.8
20260503032952 4 92 0.0 0.0 0.00 0.00 0.00 88 1017.8
20260503031513 5 92 0.0 0.0 0.00 0.00 0.00 88 1017.7
20260503031433 5 92 0.0 0.0 0.00 0.00 0.00 88 1017.7
20260503030941 5 92 0.0 0.0 0.00 0.00 0.00 88 1017.6
20260503030422 5 92 0.0 0.0 0.00 0.00 0.00 87 1017.6
20260503030002 5 92 0.0 0.0 0.00 0.00 0.00 88 1017.7
20260503025921 5 92 0.0 0.0 0.00 0.00 0.00 88 1017.6
20260503025416 5 92 0.0 0.0 0.00 0.00 0.00 88 1017.6
20260503024911 5 92 0.0 1.6 0.00 0.00 0.00 89 1017.6
20260503024554 5 92 0.0 1.6 0.00 0.00 0.00 89 1017.6
20260503024412 5 92 0.0 1.6 0.00 0.00 0.00 89 1017.6
20260503023913 5 92 0.0 1.6 0.00 0.00 0.00 89 1017.6
20260503023404 5 92 0.0 1.6 0.00 0.00 0.00 89 1017.5
20260503023138 5 93 0.0 0.0 0.00 0.00 0.00 89 1017.7
20260503022344 5 93 0.0 1.6 0.00 0.00 0.00 88 1017.7
20260503021514 4 93 0.0 0.0 0.00 0.00 0.00 87 1017.7
20260503021335 5 93 0.0 0.0 0.00 0.00 0.00 87 1017.6
20260503020826 5 93 0.0 0.0 0.00 0.00 0.00 86 1017.6
20260503020313 5 93 0.0 0.0 0.00 0.00 0.00 86 1017.7
20260503020046 5 93 0.0 0.0 0.00 0.00 0.00 86 1017.7
20260503015804 5 93 0.0 0.0 0.00 0.00 0.00 86 1017.7
20260503015256 5 93 0.0 0.0 0.00 0.00 0.00 85 1017.6
20260503014744 5 93 0.0 0.0 0.00 0.00 0.00 85 1017.6
20260503014517 5 93 0.0 0.0 0.00 0.00 0.00 85 1017.8
20260503014232 5 93 0.0 0.0 0.00 0.00 0.00 85 1017.6
20260503013720 5 93 0.0 0.0 0.00 0.00 0.00 84 1017.7
20260503013203 6 93 0.0 0.0 0.00 0.00 0.00 84 1017.7
20260503013037 5 93 0.0 0.0 0.00 0.00 0.00 84 1017.8
20260503012140 6 93 0.0 0.0 0.00 0.00 0.00 83 1017.7
20260503011639 6 93 0.0 0.0 0.00 0.00 0.00 83 1017.7
20260503011601 6 93 0.0 0.0 0.00 0.00 0.00 83 1017.8
20260503011114 6 93 0.0 0.0 0.00 0.00 0.00 83 1017.7
20260503010616 6 93 0.0 1.6 0.00 0.00 0.00 82 1017.7
20260503010023 6 93 0.0 1.6 0.00 0.00 0.00 81 1017.8
20260503005023 7 92 0.0 0.0 0.00 0.00 0.00 79 1017.6
20260503004547 7 92 0.0 0.0 0.00 0.00 0.00 79 1017.7
20260503004510 7 92 0.0 0.0 0.00 0.00 0.00 79 1017.6
20260503003947 7 92 0.0 0.0 0.00 0.00 0.00 79 1017.6
20260503003435 7 92 0.0 1.6 0.00 0.00 0.00 79 1017.6
20260503003001 7 92 0.0 3.2 0.00 0.00 0.00 80 1017.7
20260503002925 8 92 0.0 3.2 0.00 0.00 0.00 80 1017.6
20260503002414 7 92 0.0 1.6 0.00 0.00 0.00 81 1017.6
20260503001523 7 92 0.0 1.6 0.00 0.00 0.00 82 1017.7
20260503001344 7 92 0.0 1.6 0.00 0.00 0.00 82 1017.6
20260503000834 7 92 0.0 1.6 0.00 0.00 0.00 82 1017.7
20260503000320 6 92 0.0 1.6 0.00 0.00 0.00 81 1017.8
20260503000053 6 93 0.0 0.0 0.00 0.00 0.00 81 1017.9
20260502235810 6 93 0.0 0.0 0.00 0.00 0.00 80 1017.9
20260502235256 7 93 0.0 0.0 0.00 0.00 0.00 79 1017.9
20260502234744 7 93 0.0 0.0 0.00 0.00 0.00 79 1017.9
20260502234511 7 93 0.0 0.0 0.00 0.00 0.00 79 1018.1
20260502234227 7 93 0.0 1.6 0.00 0.00 0.00 79 1017.9
20260502233715 7 93 0.0 1.6 0.00 0.00 0.00 78 1018.0
20260502233202 7 93 0.0 0.0 0.00 0.00 0.00 77 1018.0
20260502233036 7 93 0.0 0.0 0.00 0.00 0.00 77 1018.2
20260502232648 7 93 0.0 0.0 0.00 0.00 0.00 76 1018.0
20260502232149 7 93 0.0 0.0 0.00 0.00 0.00 77 1018.1
20260502231605 7 93 0.0 0.0 0.00 0.00 0.00 76 1018.3
20260502231105 8 93 0.0 1.6 0.00 0.00 0.00 75 1018.2
20260502230547 8 93 0.0 0.0 0.00 0.00 0.00 74 1018.2
20260502230034 8 93 0.0 0.0 0.00 0.00 0.00 74 1018.2
20260502230008 8 93 0.0 0.0 0.00 0.00 0.00 74 1018.3
20260502225511 8 93 0.0 0.0 0.00 0.00 0.00 73 1018.2
20260502224957 9 93 0.0 0.0 0.00 0.00 0.00 72 1018.2
20260502224512 8 93 0.0 0.0 0.00 0.00 0.00 71 1018.3
20260502224435 9 93 0.0 0.0 0.00 0.00 0.00 71 1018.3
20260502223922 9 93 0.0 0.0 0.00 0.00 0.00 69 1018.3
20260502223405 10 93 0.0 0.0 0.00 0.00 0.00 69 1018.3
20260502223034 10 93 0.0 0.0 0.00 0.00 0.00 68 1018.5
20260502222851 10 93 0.0 0.0 0.00 0.00 0.00 68 1018.5
20260502222336 10 93 0.0 0.0 0.00 0.00 0.00 67 1018.5
20260502221823 11 93 0.0 0.0 0.00 0.00 0.00 66 1018.5
20260502221551 10 93 0.0 0.0 0.00 0.00 0.00 65 1018.6
20260502221308 11 93 0.0 0.0 0.00 0.00 0.00 65 1018.5
20260502220756 11 93 0.0 0.0 0.00 0.00 0.00 64 1018.5
20260502220235 11 93 0.0 0.0 0.00 0.00 0.00 64 1018.5
20260502220107 11 93 0.0 0.0 0.00 0.00 0.00 64 1018.6
20260502215715 11 93 0.0 1.6 0.00 0.00 0.00 64 1018.6
20260502215200 11 93 0.0 0.0 0.00 0.00 0.00 64 1018.6
20260502214649 11 93 0.0 1.6 0.00 0.00 0.00 64 1018.5
20260502214527 11 93 0.0 1.6 0.00 0.00 0.00 64 1018.6
20260502214139 11 93 0.0 0.0 0.00 0.00 0.00 63 1018.5
20260502213624 11 93 0.0 0.0 0.00 0.00 0.00 63 1018.6
20260502213112 11 93 0.0 0.0 0.00 0.00 0.00 62 1018.7
20260502213046 11 93 0.0 0.0 0.00 0.00 0.00 62 1018.7
20260502212549 12 93 0.0 0.0 0.00 0.00 0.00 61 1018.7
20260502212042 12 93 0.0 0.0 0.00 0.00 0.00 60 1018.7
20260502211532 12 93 0.0 0.0 0.00 0.00 0.00 59 1018.7
20260502211518 12 93 0.0 0.0 0.00 0.00 0.00 59 1018.8
20260502211019 12 93 0.0 0.0 0.00 0.00 0.00 58 1018.8
20260502210500 13 93 0.0 0.0 0.00 0.00 0.00 57 1018.8
20260502210024 13 93 0.0 0.0 0.00 0.00 0.00 57 1018.9
20260502205947 13 93 0.0 0.0 0.00 0.00 0.00 56 1018.8
20260502205428 13 93 0.0 0.0 0.00 0.00 0.00 55 1018.9
20260502204916 14 93 0.0 1.6 0.00 0.00 0.00 54 1018.9
20260502204544 14 93 0.0 1.6 0.00 0.00 0.00 53 1019.0
20260502204402 15 93 0.0 0.0 0.00 0.00 0.00 52 1018.9
20260502203848 15 93 1.6 8.0 0.00 0.00 0.00 51 1018.9
20260502203335 15 46 1.6 9.7 0.00 0.00 0.00 51 1018.9
20260502203104 15 70 0.0 9.7 0.00 0.00 0.00 51 1019.0
20260502202822 15 64 3.2 9.7 0.00 0.00 0.00 51 1018.9
20260502202306 15 96 4.8 11.3 0.00 0.00 0.00 51 1019.0
20260502201752 15 88 3.2 11.3 0.00 0.00 0.00 50 1018.9
20260502201520 15 95 3.2 9.7 0.00 0.00 0.00 50 1019.0
20260502201235 15 103 3.2 9.7 0.00 0.00 0.00 50 1019.0
20260502200726 15 89 1.6 6.4 0.00 0.00 0.00 50 1019.1
20260502200227 16 86 1.6 4.8 0.00 0.00 0.00 50 1019.1
20260502200106 15 86 0.0 3.2 0.00 0.00 0.00 50 1019.2
20260502195710 16 86 0.0 3.2 0.00 0.00 0.00 50 1019.2
20260502195200 16 83 0.0 4.8 0.00 0.00 0.00 49 1019.2
20260502194508 16 84 0.0 4.8 0.00 0.00 0.00 49 1019.3
20260502193613 16 90 0.0 4.8 0.00 0.00 0.00 48 1019.2
20260502193050 17 91 0.0 1.6 0.00 0.00 0.00 48 1019.2
20260502193026 16 91 0.0 1.6 0.00 0.00 0.00 48 1019.3
20260502192533 17 91 0.0 4.8 0.00 0.00 0.00 47 1019.3